Location: St Paul
(33.4390°N, 83.7350°W)
Time: 18:18:48
(UTC-04:00)

Cosmos 1656 - Pass Details

Date: 06 October 2017
Orbit: 797 x 850 km, 71.1° (Epoch: 22 October)

Event Time Altitude Azimuth Distance (km) Brightness Sun altitude
Rises 19:28:53 0° 346° (NNW) 3,396 7.0 -4.3°
Reaches altitude 10° 19:31:28 10° 353° (N) 2,451 6.2 -4.8°
Maximum altitude 19:36:50 45° 65° (ENE) 1,121 4.0 -5.9°
Drops below altitude 10° 19:42:05 10° 138° (SE) 2,405 5.7 -7.0°
Sets 19:44:35 0° 144° (SE) 3,325 6.5 -7.5°
